[[{"header":{"parameterUnit":"m.s-1","parameterCategory":2,"la1":30.2991,"la2":30.254,"lo1":-89.0895,"lo2":-89.0444,"dy":0.0017,"dx":0.0017,"nx":28,"ny":28,"refTime":"2024-09-28T09:00:00:Z","depth":"0","parameterNumber":2,"parameterNumberName":"U-component_of_CURRENTS"},"data":[0,0,0,0,0,0,0,0,0,0,0,0,0,0,0,0,0,0,0,0,0,0,0,0,0,0,0,0,0,0,0,0,0,0,0,0,0,0,0,0,0,0,0,0,0,0,0,0,0,0,0,0,0,0,0,0,0,0,0.2987,0.2987,0,0.3015,0.3015,0.3016,0.3002,0.3002,0.3001,0.3001,0.2981,0.2981,0.2981,0,0,0,0,0,0,0,0,0,0,0,0,0,0.2924,0.2925,0.2987,0.2987,0.2988,0.3015,0.3015,0.3016,0.3003,0.3002,0.3001,0.3001,0.2981,0.2981,0.2981,0,0,0,0,0,0,0,0,0,0,0,0,0,0.2949,0.2925,0.2987,0.2986,0.2987,0.3015,0.3015,0.3016,0.3003,0.3002,0.3001,0.3,0.2981,0.2981,0.2981,0.2996,0,0,0.2981,0.2981,0,0,0,0,0,0,0,0,0.2948,0.2951,0.2986,0.2987,0.2987,0.3007,0.2986,0.3007,0.3003,0.2994,0.3001,0.3,0.2987,0.2987,0.2991,0.2995,0.2994,0.2981,0.2981,0.2981,0.2981,0,0,0,0,0,0,0,0.2946,0.295,0.2996,0.2987,0.2987,0.2986,0.2988,0.299,0.2992,0.2995,0.2995,0.3002,0.2987,0.2991,0.299,0.2994,0.2981,0.2981,0.2981,0.2981,0.304,0.3041,0,0,0,0,0,0,0.2948,0.2949,0.2995,0.2997,0.2968,0.2988,0.2991,0.2999,0.2993,0.2992,0.3002,0.3001,0.2992,0.2991,0.299,0.3033,0.2981,0.2981,0.2981,0.3038,0.304,0.3042,0,0,0,0,0,0,0.2947,0.2952,0.2994,0.2975,0.298,0.299,0.3,0.3,0.3009,0.3,0.2997,0.3011,0.2991,0.299,0.3005,0.3031,0.2981,0.2981,0.3036,0.3039,0.3041,0.3102,0,0,0,0,0,0,0.2945,0.2951,0.2958,0.2975,0.2982,0.3018,0.3001,0.3001,0.3015,0.3014,0.3006,0.3003,0.299,0.3005,0.3005,0.303,0.298,0.3034,0.3037,0.304,0.3098,0.3107,0.3114,0,0,0,0,0,0.2942,0.2957,0.2959,0.2964,0.2991,0.3019,0.3022,0.3024,0.3016,0.3027,0.3026,0.3004,0.3024,0.3006,0.3005,0.3031,0.3033,0.3037,0.304,0.3095,0.3105,0.3114,0,0,0,0,0,0,0.2932,0.2958,0.296,0.298,0.3002,0.3018,0.303,0.3032,0.304,0.3038,0.3022,0.302,0.3048,0.3033,0.3014,0.3059,0.3026,0.303,0.3068,0.3077,0.3085,0.3087,0.298,0,0,0,0,0,0.2935,0.2952,0.2976,0.2993,0.3006,0.3019,0.3031,0.3036,0.3047,0.3049,0.3045,0.3047,0.3063,0.3063,0.3072,0.3091,0.3103,0.3109,0.3117,0.3123,0.3126,0.3198,0.3212,0.3054,0.3054,0.3054,0,0,0.2935,0.2952,0.2961,0.2992,0.3007,0.3028,0.3024,0.3049,0.3065,0.3046,0.3065,0.3076,0.3077,0.3106,0.3115,0.3093,0.3172,0.3128,0.3133,0.3133,0.3203,0.3219,0.3232,0.3056,0.3056,0.3056,0,0,0.2945,0.2962,0.2979,0.2999,0.303,0.3042,0.3052,0.3076,0.3085,0.3111,0.311,0.3141,0.3145,0.3163,0.3169,0.3225,0.3217,0.3225,0.3257,0.3327,0.3341,0.3353,0.3377,0.3391,0.3221,0.3221,0.3221,0,0.2945,0.2968,0.2989,0.3011,0.3032,0.3049,0.3074,0.3089,0.3113,0.3147,0.3122,0.3189,0.3177,0.3239,0.3246,0.3243,0.3266,0.322,0.3338,0.3351,0.3362,0.3383,0.3398,0.3225,0.3224,0.3224,0.3224,0,0.2966,0.2986,0.3001,0.3033,0.3059,0.3086,0.3115,0.3146,0.316,0.3189,0.3259,0.3261,0.3303,0.3306,0.3281,0.3363,0.3347,0.3347,0.3315,0.3382,0.34,0.3414,0.323,0.3228,0.3227,0.3227,0,0,0.2966,0.3007,0.3011,0.3024,0.3076,0.3093,0.3146,0.3209,0.3252,0.3288,0.3352,0.3383,0.3403,0.3411,0.3406,0.3446,0.3524,0.342,0.3422,0.3442,0.3656,0.3589,0.3597,0.3553,0.3556,0.3559,0.363,0,0.2978,0.3003,0.3037,0.3068,0.3085,0.3138,0.3181,0.3243,0.3296,0.3359,0.3411,0.3458,0.3437,0.3453,0.3502,0.3525,0.3566,0.3503,0.3588,0.3589,0.3523,0.3614,0.3524,0.3577,0.3644,0.3646,0.3648,0,0.2987,0.3003,0.3029,0.3081,0.3097,0.3124,0.3217,0.3262,0.3376,0.3422,0.3514,0.3543,0.3616,0.3572,0.3681,0.3645,0.3651,0.3662,0.3666,0.3593,0.355,0.3524,0.36,0.356,0.3669,0.3668,0.3666,0,0.2951,0.2999,0.3014,0.303,0.3093,0.3133,0.3179,0.3291,0.335,0.3467,0.3525,0.3631,0.3673,0.3734,0.3752,0.3727,0.3856,0.383,0.3783,0.3776,0.3709,0.3691,0.3755,0.3911,0.3911,0.3911,0.391,0,0.2943,0.2953,0.2993,0.2997,0.3033,0.31,0.3168,0.3244,0.3366,0.3436,0.3546,0.3612,0.3717,0.3795,0.3801,0.3842,0.3911,0.3807,0.3809,0.3724,0.3708,0.3674,0.3624,0.3913,0.3913,0.3912,0.3912,0,0.2893,0.292,0.2934,0.2991,0.301,0.3035,0.314,0.3194,0.3324,0.342,0.3457,0.3626,0.3727,0.3816,0.3908,0.3898,0.3841,0.3926,0.3793,0.3778,0.3667,0.3622,0.3486,0.3389,0.3891,0.389,0.3889,0,0.286,0.2863,0.2902,0.2908,0.2932,0.2981,0.3019,0.3151,0.3218,0.3408,0.3446,0.3598,0.3682,0.3826,0.3849,0.3896,0.3797,0.3816,0.3749,0.3667,0.3621,0.3445,0.3361,0.3681,0.3679,0.3677,0.3675,0,0.2805,0.2823,0.2833,0.2842,0.2866,0.2893,0.2962,0.3005,0.3156,0.3252,0.3374,0.3464,0.363,0.3674,0.376,0.3762,0.3652,0.3773,0.3752,0.3515,0.3266,0.3171,0.3597,0.3657,0.3659,0.3661,0.3661,0.3662,0.2761,0.275,0.2765,0.2764,0.2784,0.2786,0.2776,0.2868,0.2944,0.306,0.3219,0.3325,0.3516,0.3635,0.3613,0.3574,0.3496,0.3515,0.3484,0.3325,0.3178,0.3534,0.3554,0.3555,0.3556,0.3556,0.3557,0,0.2693,0.2687,0.2686,0.2668,0.2638,0.2685,0.2715,0.2693,0.2718,0.2891,0.2994,0.319,0.3284,0.3403,0.3462,0.3355,0.3177,0.3272,0.305,0.2995,0.3405,0.3347,0.3245,0.3245,0.3245,0.3245,0.3245,0.3245,0.2658,0.2619,0.2607,0.2518,0.2501,0.2424,0.2406,0.2407,0.2493,0.2591,0.2714,0.2868,0.3176,0.3337,0.3309,0.3214,0.2988,0.2824,0.2797,0.3165,0.3186,0.3206,0.3146,0.3002,0.3002,0.2297,0.2292,0.2288]},{"header":{"parameterUnit":"m.s-1","parameterCategory":2,"la1":30.2991,"la2":30.254,"lo1":-89.0895,"lo2":-89.0444,"dy":0.0017,"dx":0.0017,"nx":28,"ny":28,"refTime":"2024-09-28T09:00:00:Z","depth":"0","parameterNumber":3,"parameterNumberName":"V-component_of_CURRENTS"},"data":[0,0,0,0,0,0,0,0,0,0,0,0,0,0,0,0,0,0,0,0,0,0,0,0,0,0,0,0,0,0,0,0,0,0,0,0,0,0,0,0,0,0,0,0,0,0,0,0,0,0,0,0,0,0,0,0,0,0,0.0322,0.0321,0,0.026,0.0259,0.0259,0.0209,0.0209,0.0209,0.0208,0.0112,0.011,0.0108,0,0,0,0,0,0,0,0,0,0,0,0,0,0.033,0.0331,0.0322,0.0321,0.0321,0.026,0.0259,0.0258,0.0209,0.0209,0.0209,0.0208,0.0113,0.011,0.0107,0,0,0,0,0,0,0,0,0,0,0,0,0,0.0302,0.0331,0.0322,0.029,0.0287,0.0261,0.0259,0.0258,0.021,0.0209,0.0209,0.0208,0.0114,0.011,0.0107,0.0096,0,0,0.0097,0.0095,0,0,0,0,0,0,0,0,0.0304,0.0302,0.0296,0.0293,0.0289,0.0244,0.0227,0.0203,0.021,0.0237,0.0208,0.0208,0.0154,0.0148,0.0135,0.0091,0.0087,0.0096,0.0094,0.0093,0.0092,0,0,0,0,0,0,0,0.0306,0.0304,0.0296,0.0295,0.0291,0.0257,0.0252,0.0222,0.0197,0.0235,0.0231,0.0228,0.0152,0.0138,0.0132,0.0086,0.0096,0.0093,0.0091,0.009,0.0022,0.0022,0,0,0,0,0,0,0.0321,0.0306,0.0298,0.0294,0.0297,0.0257,0.0252,0.0257,0.0198,0.0189,0.0228,0.0226,0.0144,0.0136,0.0129,0.0125,0.0093,0.009,0.0088,0.0022,0.0022,0.0022,0,0,0,0,0,0,0.0322,0.0322,0.03,0.0299,0.0294,0.0258,0.0263,0.0256,0.0245,0.0194,0.0184,0.0225,0.0144,0.0133,0.0108,0.012,0.0088,0.0085,0.0021,0.0022,0.0022,0.0109,0,0,0,0,0,0,0.0323,0.0322,0.0329,0.0301,0.0295,0.0295,0.0264,0.0255,0.0244,0.0241,0.0188,0.0178,0.0143,0.0114,0.0105,0.0115,0.0082,0.0021,0.0022,0.0022,0.0106,0.0112,0.0118,0,0,0,0,0,0.0323,0.0343,0.033,0.0329,0.0307,0.0296,0.029,0.026,0.0245,0.0247,0.021,0.018,0.011,0.0111,0.0101,0.011,0.0021,0.0021,0.0022,0.0103,0.0111,0.0118,0,0,0,0,0,0,0.0352,0.0339,0.0325,0.034,0.0321,0.0288,0.0288,0.0268,0.024,0.0236,0.0185,0.0173,0.0153,0.0119,0.0122,0.009,0.0059,0.0058,0.0125,0.0132,0.0138,0.0163,0.0079,0,0,0,0,0,0.0362,0.0372,0.035,0.036,0.0356,0.0322,0.0313,0.0295,0.0268,0.0256,0.022,0.018,0.0147,0.0131,0.0095,0.0082,0.005,0.0079,0.0086,0.0091,0.0104,0.0071,0.0075,0.0024,0.0024,0.0024,0,0,0.0375,0.0369,0.0374,0.0366,0.0349,0.0354,0.0316,0.0312,0.0313,0.025,0.0241,0.0199,0.0147,0.013,0.0118,0.0105,0.0087,0.0092,0.0097,0.0107,0.0072,0.0077,0.0081,0.0024,0.0024,0.0024,0,0,0.041,0.0403,0.0423,0.0414,0.0399,0.0381,0.0385,0.0357,0.0343,0.0328,0.0282,0.0254,0.0202,0.0173,0.0149,0.0167,0.0118,0.015,0.0205,0.0173,0.0178,0.0181,0.0143,0.0143,0.0156,0.0157,0.0157,0,0.0423,0.0447,0.0425,0.0441,0.0441,0.04,0.0419,0.0401,0.0368,0.0367,0.0336,0.0271,0.0224,0.0209,0.0212,0.0183,0.0153,0.0185,0.0183,0.0186,0.0188,0.0148,0.0147,0.0161,0.016,0.016,0.0159,0,0.0472,0.0487,0.05,0.0506,0.0504,0.0514,0.049,0.0487,0.0461,0.0441,0.0419,0.0353,0.0319,0.0294,0.0256,0.0251,0.0222,0.0194,0.0171,0.0199,0.0154,0.0151,0.0167,0.0165,0.0164,0.0163,0,0,0.0504,0.0531,0.0533,0.0553,0.0541,0.0551,0.0557,0.0557,0.058,0.0525,0.054,0.0469,0.0436,0.0407,0.0353,0.0321,0.0301,0.0272,0.0268,0.0246,0.0228,0.0218,0.0212,0.0275,0.0275,0.0275,0.019,0,0.0545,0.0601,0.0595,0.064,0.0666,0.064,0.0659,0.0653,0.0636,0.064,0.0568,0.0554,0.0478,0.0465,0.0421,0.0338,0.0297,0.0327,0.0194,0.019,0.0188,0.021,0.0223,0.015,0.0186,0.0186,0.0185,0,0.0589,0.0624,0.0682,0.0725,0.0735,0.0757,0.079,0.0801,0.079,0.0778,0.0745,0.0684,0.063,0.0557,0.043,0.0454,0.0351,0.0274,0.0268,0.023,0.0175,0.0126,0.0141,0.0008,0.018,0.018,0.0181,0,0.0631,0.0681,0.0736,0.0747,0.0787,0.0816,0.0839,0.085,0.0885,0.0869,0.0888,0.08,0.0769,0.0634,0.0472,0.0451,0.033,0.0277,0.0165,0.0162,0.0133,0.0129,0.0016,0.0181,0.0182,0.0182,0.0182,0,0.0673,0.0714,0.0767,0.0799,0.088,0.0883,0.0964,0.0975,0.1007,0.1062,0.0969,0.0985,0.0788,0.0688,0.0519,0.0348,0.0363,0.0184,0.0146,0.0162,0.0162,0.0011,-0.0088,0.0178,0.0179,0.018,0.018,0,0.0701,0.0731,0.0805,0.0874,0.0904,0.0964,0.1057,0.112,0.1136,0.1202,0.12,0.1132,0.1004,0.08,0.0586,0.0427,0.0163,0.0177,0.021,0.0178,-0.0055,-0.015,-0.0305,-0.0377,0.0037,0.0037,0.0036,0,0.072,0.0763,0.0869,0.0928,0.0964,0.1055,0.1128,0.1181,0.1256,0.1295,0.134,0.1241,0.1193,0.0891,0.0588,0.03,0.0143,0.0117,0.0073,-0.0053,-0.0188,-0.0236,-0.0288,0.0058,0.0057,0.0057,0.0057,0,0.0761,0.08,0.0868,0.0995,0.1087,0.1193,0.1303,0.1386,0.1446,0.1506,0.1561,0.1525,0.1239,0.0974,0.0588,0.0368,0.0025,0.0102,-0.0039,-0.0183,-0.0233,-0.0323,0.0092,0.0054,0.0055,0.0055,0.0055,0.0055,0.0793,0.0852,0.0951,0.1068,0.1179,0.1318,0.142,0.1539,0.1667,0.178,0.1735,0.1744,0.1356,0.0838,0.0518,-0.0001,-0.0019,-0.0152,-0.0259,-0.0295,-0.0355,0.006,-0.0009,-0.001,-0.001,-0.001,-0.001,0,0.083,0.0906,0.1017,0.1164,0.1289,0.1342,0.1527,0.1641,0.18,0.1921,0.1976,0.1836,0.1337,0.083,0.013,-0.0255,-0.0409,-0.0473,-0.0546,-0.0586,-0.0223,-0.021,-0.0313,-0.0313,-0.0313,-0.0312,-0.0312,-0.0312,0.0856,0.096,0.102,0.1224,0.1331,0.1508,0.1619,0.1794,0.1937,0.2118,0.2183,0.2207,0.1856,0.0522,-0.0333,-0.0555,-0.081,-0.0894,-0.1018,-0.078,-0.0758,-0.0737,-0.0745,-0.0958,-0.0959,-0.1306,-0.131,-0.1313]}],[{"header":{"parameterUnit":"m.s-1","parameterCategory":2,"la1":30.2991,"la2":30.254,"lo1":-89.0895,"lo2":-89.0444,"dy":0.0017,"dx":0.0017,"nx":28,"ny":28,"refTime":"2024-09-28T09:00:00:Z","depth":"2","parameterNumber":2,"parameterNumberName":"U-component_of_CURRENTS"},"data":[0,0,0,0,0,0,0,0,0,0,0,0,0,0,0,0,0,0,0,0,0,0,0,0,0,0,0,0,0,0,0,0,0,0,0,0,0,0,0,0,0,0,0,0,0,0,0,0,0,0,0,0,0,0,0,0,0,0,0.2656,0.2657,0,0.2683,0.2683,0.2683,0.2682,0.2682,0.2682,0.2682,0.2674,0.2674,0.2673,0,0,0,0,0,0,0,0,0,0,0,0,0,0.26,0.2601,0.2656,0.2657,0.2657,0.2683,0.2683,0.2683,0.2682,0.2682,0.2682,0.2682,0.2674,0.2674,0.2673,0,0,0,0,0,0,0,0,0,0,0,0,0,0.2623,0.2602,0.2656,0.2662,0.2663,0.2683,0.2683,0.2683,0.2682,0.2682,0.2682,0.2682,0.2674,0.2674,0.2673,0.2677,0,0,0.2673,0.2673,0,0,0,0,0,0,0,0,0.2622,0.2625,0.266,0.2662,0.2663,0.2681,0.2661,0.268,0.2682,0.2672,0.2682,0.2682,0.2675,0.2674,0.2677,0.2677,0.2676,0.2673,0.2673,0.2673,0.2673,0,0,0,0,0,0,0,0.262,0.2624,0.2664,0.2661,0.2662,0.2662,0.2664,0.2664,0.2672,0.2673,0.2674,0.2681,0.2675,0.2677,0.2677,0.2676,0.2673,0.2673,0.2673,0.2673,0.2728,0.2729,0,0,0,0,0,0,0.2623,0.2623,0.2664,0.2665,0.2644,0.2663,0.2666,0.2673,0.2673,0.2673,0.2681,0.2681,0.2677,0.2677,0.2676,0.2725,0.2673,0.2673,0.2673,0.2726,0.2728,0.273,0,0,0,0,0,0,0.2621,0.2626,0.2663,0.2646,0.2651,0.2665,0.2673,0.2674,0.2689,0.2679,0.2679,0.2696,0.2677,0.2677,0.2694,0.2723,0.2673,0.2673,0.2724,0.2727,0.2729,0.2794,0,0,0,0,0,0,0.262,0.2625,0.2634,0.2647,0.2652,0.2686,0.2673,0.2675,0.2694,0.2694,0.2692,0.269,0.2677,0.2694,0.2694,0.2722,0.2673,0.2722,0.2725,0.2728,0.279,0.2798,0.2806,0,0,0,0,0,0.2618,0.263,0.2635,0.264,0.2663,0.2687,0.269,0.2696,0.2695,0.2708,0.271,0.2691,0.2712,0.2696,0.2695,0.2723,0.2721,0.2724,0.2728,0.2787,0.2797,0.2805,0,0,0,0,0,0,0.261,0.2632,0.2637,0.2656,0.2676,0.2688,0.2702,0.2707,0.2719,0.2722,0.2707,0.2706,0.2736,0.2721,0.2703,0.2749,0.2715,0.2718,0.276,0.2769,0.2777,0.2778,0.2672,0,0,0,0,0,0.2614,0.263,0.2651,0.2668,0.268,0.2694,0.2706,0.2714,0.2726,0.2731,0.2731,0.2734,0.2749,0.2751,0.2758,0.2778,0.2785,0.2797,0.2805,0.2812,0.2814,0.2875,0.2889,0.2741,0.2741,0.2741,0,0,0.2614,0.2631,0.2639,0.2668,0.2683,0.2702,0.2701,0.2728,0.2745,0.2728,0.2752,0.2764,0.2762,0.279,0.2802,0.278,0.2856,0.2816,0.2822,0.282,0.288,0.2895,0.2907,0.2743,0.2743,0.2742,0,0,0.2624,0.2642,0.2658,0.2678,0.271,0.272,0.2733,0.2757,0.277,0.2797,0.2797,0.2828,0.2835,0.2849,0.2853,0.2907,0.29,0.2911,0.2945,0.3005,0.3018,0.3029,0.3049,0.3061,0.2909,0.2909,0.2909,0,0.2626,0.2647,0.2667,0.2689,0.271,0.273,0.2754,0.277,0.2796,0.2829,0.2812,0.2876,0.2865,0.2919,0.2929,0.2925,0.2946,0.2909,0.3016,0.3028,0.3038,0.3055,0.3068,0.2913,0.2912,0.2912,0.2912,0,0.2643,0.2664,0.2679,0.2711,0.2737,0.2764,0.2792,0.2825,0.2847,0.2874,0.2944,0.2945,0.2985,0.2989,0.2966,0.3042,0.3028,0.3025,0.2993,0.3057,0.3071,0.3083,0.2918,0.2916,0.2915,0.2915,0,0,0.264,0.2682,0.2688,0.2702,0.2755,0.277,0.2823,0.2883,0.2926,0.2966,0.3029,0.3058,0.3081,0.3087,0.3083,0.3119,0.3192,0.3097,0.3099,0.3116,0.3308,0.3238,0.3244,0.3219,0.3222,0.3224,0.3284,0,0.2651,0.2677,0.271,0.2742,0.2759,0.2812,0.2854,0.2915,0.2969,0.3032,0.3081,0.3131,0.3111,0.3133,0.3175,0.3193,0.323,0.3174,0.3243,0.3244,0.3175,0.3258,0.3027,0.3057,0.3296,0.3298,0.33,0,0.2657,0.2674,0.2704,0.2755,0.2772,0.2801,0.2892,0.2935,0.3044,0.3092,0.3181,0.3213,0.328,0.3242,0.3335,0.3306,0.3309,0.3317,0.332,0.3239,0.3198,0.3034,0.307,0.332,0.3319,0.3317,0.3316,0,0.2622,0.2671,0.269,0.2707,0.277,0.2813,0.2859,0.2966,0.3024,0.3141,0.32,0.3296,0.334,0.339,0.3403,0.3382,0.349,0.3465,0.3409,0.3403,0.3209,0.3181,0.3533,0.3533,0.3533,0.3533,0.3533,0,0.2612,0.2626,0.2673,0.2681,0.2721,0.2786,0.2858,0.2931,0.3049,0.3118,0.3224,0.3287,0.3382,0.3448,0.3449,0.3472,0.3539,0.343,0.3429,0.3223,0.3197,0.3423,0.341,0.3535,0.3535,0.3534,0.3534,0,0.2566,0.2597,0.2617,0.2679,0.2702,0.2732,0.2841,0.2893,0.3021,0.3115,0.3156,0.3311,0.3398,0.3472,0.3546,0.3523,0.3548,0.3532,0.3264,0.323,0.3404,0.3393,0.3486,0.3485,0.3483,0.3482,0.3481,0,0.2537,0.2544,0.2594,0.2605,0.2635,0.2692,0.2733,0.2862,0.2926,0.3108,0.3144,0.3286,0.3353,0.3463,0.3458,0.348,0.3528,0.3258,0.3175,0.3417,0.3407,0.3398,0.3389,0.2937,0.2931,0.2927,0.2923,0,0.2487,0.2512,0.2526,0.2547,0.258,0.2611,0.2684,0.2726,0.2872,0.2964,0.3076,0.3154,0.3278,0.3218,0.3268,0.3237,0.324,0.3169,0.3522,0.2986,0.2905,0.2892,0.2901,0.2884,0.2888,0.2891,0.2893,0.2895,0.245,0.2444,0.2467,0.2477,0.2505,0.2512,0.2507,0.2594,0.2666,0.2766,0.2912,0.2951,0.3019,0.2984,0.2905,0.2846,0.3056,0.2924,0.2936,0.2952,0.288,0.2801,0.2745,0.2748,0.2751,0.2753,0.2755,0,0.2389,0.2389,0.2394,0.2389,0.2365,0.2421,0.2452,0.2424,0.2446,0.2576,0.266,0.2502,0.2503,0.255,0.2419,0.2431,0.2379,0.2321,0.2239,0.2283,0.232,0.2211,0.1902,0.1898,0.1895,0.1892,0,0,0.2358,0.2327,0.2316,0.2243,0.2239,0.2176,0.2161,0.2147,0.2198,0.2191,0.2208,0.2424,0.2514,0.2181,0.2153,0.2003,0.2114,0.1924,0.2623,0.2573,0.2606,0.27,0.2587,0,0,0,0,0]},{"header":{"parameterUnit":"m.s-1","parameterCategory":2,"la1":30.2991,"la2":30.254,"lo1":-89.0895,"lo2":-89.0444,"dy":0.0017,"dx":0.0017,"nx":28,"ny":28,"refTime":"2024-09-28T09:00:00:Z","depth":"2","parameterNumber":3,"parameterNumberName":"V-component_of_CURRENTS"},"data":[0,0,0,0,0,0,0,0,0,0,0,0,0,0,0,0,0,0,0,0,0,0,0,0,0,0,0,0,0,0,0,0,0,0,0,0,0,0,0,0,0,0,0,0,0,0,0,0,0,0,0,0,0,0,0,0,0,0,0.0264,0.0264,0,0.0205,0.0204,0.0203,0.0161,0.016,0.016,0.016,0.0068,0.0066,0.0064,0,0,0,0,0,0,0,0,0,0,0,0,0,0.0276,0.0276,0.0264,0.0263,0.0263,0.0205,0.0204,0.0203,0.0161,0.016,0.016,0.016,0.0069,0.0066,0.0063,0,0,0,0,0,0,0,0,0,0,0,0,0,0.0248,0.0276,0.0264,0.0236,0.0233,0.0205,0.0204,0.0202,0.0161,0.016,0.016,0.016,0.007,0.0066,0.0063,0.0047,0,0,0.0053,0.0051,0,0,0,0,0,0,0,0,0.0249,0.0247,0.0241,0.0238,0.0235,0.0191,0.0174,0.0149,0.0161,0.0186,0.016,0.016,0.0108,0.0101,0.0088,0.0043,0.0039,0.0052,0.005,0.0049,0.0048,0,0,0,0,0,0,0,0.0251,0.0249,0.0239,0.024,0.0237,0.0204,0.02,0.0169,0.0147,0.0184,0.0181,0.0178,0.0105,0.0092,0.0086,0.0037,0.0052,0.0049,0.0047,0.0046,-0.003,-0.003,0,0,0,0,0,0,0.0266,0.0251,0.0241,0.0237,0.0244,0.0205,0.02,0.0204,0.0148,0.014,0.0178,0.0176,0.0098,0.009,0.0082,0.0075,0.0049,0.0046,0.0044,-0.003,-0.003,-0.003,0,0,0,0,0,0,0.0267,0.0266,0.0243,0.0244,0.0239,0.0206,0.021,0.0203,0.0193,0.0144,0.0135,0.0176,0.0097,0.0087,0.0061,0.007,0.0044,0.0041,-0.003,-0.003,-0.003,0.005,0,0,0,0,0,0,0.0268,0.0267,0.0273,0.0245,0.0239,0.0236,0.021,0.0202,0.0192,0.0189,0.0139,0.013,0.0096,0.0066,0.0058,0.0065,0.0038,-0.003,-0.003,-0.003,0.0047,0.0053,0.0058,0,0,0,0,0,0.0268,0.0285,0.0274,0.0273,0.025,0.0237,0.0231,0.0204,0.0193,0.0193,0.0159,0.0132,0.006,0.0064,0.0053,0.006,-0.003,-0.003,-0.003,0.0045,0.0052,0.0057,0,0,0,0,0,0,0.0294,0.0282,0.0269,0.0281,0.0263,0.023,0.023,0.0211,0.0185,0.0183,0.0134,0.0123,0.0101,0.0068,0.0074,0.0037,0.001,0.0008,0.007,0.0076,0.0081,0.0107,0.0035,0,0,0,0,0,0.0303,0.0312,0.029,0.0299,0.0294,0.0263,0.0254,0.0238,0.0211,0.02,0.0165,0.0126,0.0092,0.0076,0.0041,0.0024,-0.0007,0.002,0.0025,0.003,0.0042,0.0004,0.0008,-0.0029,-0.0029,-0.0029,0,0,0.0314,0.0309,0.0313,0.0304,0.0288,0.0291,0.0257,0.0253,0.0253,0.0194,0.0184,0.0143,0.0091,0.0071,0.0059,0.0047,0.0022,0.003,0.0034,0.0044,0.0005,0.0008,0.0012,-0.0029,-0.0029,-0.0029,0,0,0.0346,0.0339,0.0357,0.0348,0.0334,0.0316,0.032,0.0293,0.028,0.0263,0.022,0.019,0.0139,0.0108,0.0083,0.0095,0.0049,0.0079,0.0128,0.0092,0.0095,0.0097,0.0061,0.006,0.0084,0.0084,0.0084,0,0.0357,0.0379,0.0358,0.0372,0.0372,0.0334,0.0351,0.0332,0.03,0.0297,0.0271,0.0203,0.0158,0.0136,0.0137,0.0108,0.008,0.0113,0.01,0.0102,0.0103,0.0066,0.0063,0.0088,0.0087,0.0087,0.0087,0,0.0401,0.0415,0.0426,0.0432,0.0428,0.0437,0.0413,0.0408,0.0386,0.0365,0.034,0.0275,0.0239,0.0213,0.0178,0.0165,0.0139,0.0112,0.0091,0.0112,0.007,0.0066,0.0093,0.0092,0.0091,0.009,0,0,0.0429,0.0453,0.0456,0.0474,0.0463,0.047,0.0473,0.047,0.0488,0.0437,0.0444,0.0375,0.0344,0.0314,0.0261,0.0225,0.0201,0.018,0.0176,0.0157,0.0122,0.0106,0.0099,0.0173,0.0173,0.0173,0.009,0,0.0466,0.0517,0.0512,0.0552,0.0576,0.0551,0.0565,0.0557,0.0538,0.0535,0.0465,0.0448,0.038,0.0367,0.032,0.0235,0.0195,0.0227,0.0094,0.0091,0.0084,0.0096,0.0109,0.0037,0.0085,0.0085,0.0084,0,0.0506,0.0538,0.0592,0.063,0.0639,0.0658,0.0683,0.0691,0.0673,0.0659,0.0624,0.0566,0.0508,0.0444,0.0313,0.0338,0.0242,0.0166,0.0161,0.0118,0.0068,0.0022,0.0027,0.0077,0.0077,0.0078,0.0078,0,0.0546,0.0591,0.0642,0.0652,0.0687,0.0713,0.0733,0.0736,0.0766,0.0743,0.0757,0.0666,0.0633,0.0502,0.0344,0.0331,0.0194,0.0153,0.0045,0.0042,0.0014,0.001,0.006,0.006,0.006,0.006,0.006,0,0.0585,0.0623,0.0672,0.0702,0.0776,0.0776,0.0849,0.0856,0.0877,0.0923,0.0832,0.0838,0.0648,0.0541,0.0381,0.0209,0.022,0.0061,0.0023,0.0041,0.004,0.0043,0.0042,0.0057,0.0058,0.0058,0.0059,0,0.0612,0.064,0.0709,0.0772,0.08,0.0856,0.094,0.0994,0.1003,0.1055,0.1054,0.0973,0.0839,0.0637,0.0425,0.0274,0.0099,0.003,0.0065,0.0034,-0.0042,-0.0038,-0.0096,-0.0097,-0.0098,-0.0099,-0.0099,0,0.063,0.0671,0.077,0.0826,0.086,0.0945,0.1012,0.1055,0.1119,0.114,0.1174,0.1067,0.1005,0.0694,0.0408,0.0131,0.0094,-0.0039,-0.0065,-0.0025,-0.0056,-0.005,-0.0045,-0.0079,-0.0079,-0.008,-0.008,0,0.0668,0.0706,0.0769,0.0891,0.0977,0.1076,0.1175,0.1246,0.1294,0.1339,0.137,0.1322,0.1031,0.0758,0.0383,0.0187,0.0006,-0.0055,-0.0024,-0.0033,-0.0014,-0.0042,-0.0037,-0.0083,-0.0083,-0.0083,-0.0083,-0.0082,0.0698,0.0754,0.0847,0.0959,0.1063,0.1191,0.1286,0.1387,0.1495,0.1573,0.1518,0.1461,0.114,0.067,0.033,-0.0023,-0.0006,-0.0134,-0.0132,-0.0129,-0.0104,-0.0086,-0.0165,-0.0165,-0.0165,-0.0165,-0.0165,0,0.0734,0.0806,0.091,0.1049,0.1165,0.1219,0.1383,0.1478,0.1612,0.1678,0.1706,0.1397,0.1082,0.0715,0.0195,-0.0114,-0.0146,-0.0219,-0.0187,-0.0181,-0.0176,-0.0153,-0.0228,-0.0229,-0.023,-0.0231,0,0,0.0758,0.0856,0.0912,0.1104,0.1208,0.1373,0.1474,0.1613,0.1707,0.1775,0.1749,0.1675,0.1211,0.0827,0.0392,0.009,0.0029,0.0022,0.0105,0.0201,0.0209,-0.0099,-0.0053,0,0,0,0,0]}],[{"header":{"parameterUnit":"m.s-1","parameterCategory":2,"la1":30.2991,"la2":30.254,"lo1":-89.0895,"lo2":-89.0444,"dy":0.0017,"dx":0.0017,"nx":28,"ny":28,"refTime":"2024-09-28T09:00:00:Z","depth":"4","parameterNumber":2,"parameterNumberName":"U-component_of_CURRENTS"},"data":[0,0,0,0,0,0,0,0,0,0,0,0,0,0,0,0,0,0,0,0,0,0,0,0,0,0,0,0,0,0,0,0,0,0,0,0,0,0,0,0,0,0,0,0,0,0,0,0,0,0,0,0,0,0,0,0,0,0,0.1663,0.1664,0,0.1718,0.1719,0.1719,0.1768,0.1768,0.1769,0.177,0.1824,0.1824,0.1825,0,0,0,0,0,0,0,0,0,0,0,0,0,0.1584,0.1586,0.1663,0.1664,0.1665,0.1718,0.1719,0.1719,0.1768,0.1768,0.1769,0.177,0.1823,0.1824,0.1825,0,0,0,0,0,0,0,0,0,0,0,0,0,0.1625,0.1586,0.1663,0.1697,0.1701,0.1718,0.1719,0.1719,0.1767,0.1769,0.177,0.1771,0.1823,0.1824,0.1825,0.1809,0,0,0.1829,0.1829,0,0,0,0,0,0,0,0,0.1622,0.1627,0.1691,0.1695,0.1699,0.1739,0.1711,0.175,0.1767,0.174,0.177,0.1771,0.1796,0.1799,0.1804,0.1811,0.1814,0.1829,0.1829,0.183,0.183,0,0,0,0,0,0,0,0.162,0.1625,0.1683,0.1692,0.1697,0.1705,0.1712,0.1718,0.1759,0.1742,0.1746,0.1756,0.1798,0.1803,0.1806,0.1814,0.1829,0.183,0.183,0.1831,0.1925,0.1927,0,0,0,0,0,0,0.1617,0.1623,0.1681,0.1684,0.1665,0.1705,0.1713,0.1723,0.1759,0.1766,0.1755,0.1758,0.18,0.1804,0.1808,0.1894,0.183,0.1831,0.1831,0.1923,0.1925,0.1927,0,0,0,0,0,0,0.1615,0.1622,0.1679,0.1656,0.1665,0.1706,0.1717,0.1724,0.1768,0.1769,0.1776,0.1797,0.1801,0.1806,0.1851,0.1892,0.1831,0.1832,0.1921,0.1924,0.1926,0.1999,0,0,0,0,0,0,0.1613,0.1621,0.1644,0.1656,0.1666,0.1715,0.1716,0.1724,0.1771,0.1776,0.1806,0.181,0.1803,0.185,0.1852,0.1893,0.1833,0.1919,0.1922,0.1926,0.1995,0.2004,0.2013,0,0,0,0,0,0.161,0.163,0.1644,0.1653,0.1691,0.1716,0.1722,0.1753,0.1772,0.1796,0.1822,0.1811,0.1874,0.1852,0.1855,0.1896,0.1917,0.1921,0.1925,0.1991,0.2002,0.2012,0,0,0,0,0,0,0.1608,0.1637,0.1653,0.1683,0.1712,0.1726,0.1757,0.1775,0.1813,0.1832,0.1831,0.1837,0.1893,0.1884,0.186,0.1935,0.1895,0.19,0.1944,0.1955,0.1964,0.1963,0.1834,0,0,0,0,0,0.1618,0.1645,0.1669,0.1698,0.1717,0.1745,0.1766,0.1789,0.1815,0.1836,0.1857,0.1882,0.1905,0.1923,0.1939,0.1976,0.1974,0.2006,0.2015,0.2023,0.2024,0.2072,0.2086,0.1941,0.1941,0.1941,0,0,0.1625,0.1647,0.1663,0.1702,0.1728,0.1755,0.1762,0.1808,0.1838,0.1834,0.1895,0.1917,0.1923,0.1969,0.1993,0.1971,0.2062,0.2028,0.2034,0.2032,0.2078,0.2092,0.2104,0.1944,0.1944,0.1943,0,0,0.1641,0.1677,0.1701,0.1728,0.1777,0.1792,0.1814,0.1854,0.1887,0.1938,0.1948,0.1996,0.2029,0.2044,0.2052,0.2119,0.211,0.2134,0.2177,0.2225,0.2237,0.2247,0.2256,0.2267,0.2137,0.2137,0.2137,0,0.1654,0.1684,0.1714,0.1743,0.1774,0.1812,0.1845,0.1875,0.1928,0.1968,0.1972,0.2059,0.2061,0.2118,0.214,0.214,0.2156,0.2134,0.2236,0.2247,0.2257,0.2263,0.2274,0.2141,0.214,0.214,0.214,0,0.1673,0.1714,0.1735,0.1782,0.1818,0.1858,0.1898,0.1952,0.2,0.2034,0.2124,0.214,0.2192,0.2204,0.2188,0.2266,0.2251,0.2244,0.2207,0.2275,0.2278,0.2288,0.2147,0.2145,0.2144,0.2143,0,0,0.166,0.1734,0.1746,0.1777,0.1848,0.1871,0.1943,0.2012,0.2069,0.2136,0.2211,0.2258,0.2291,0.2301,0.2306,0.2339,0.2409,0.2325,0.2325,0.2329,0.2501,0.2345,0.234,0.2433,0.2436,0.2438,0.2472,0,0.1673,0.1725,0.1767,0.1827,0.1857,0.1927,0.1982,0.2056,0.2126,0.2206,0.2263,0.2331,0.232,0.2358,0.2395,0.2411,0.2442,0.2399,0.2437,0.2437,0.2287,0.2349,0.2445,0.248,0.2482,0.2484,0.2485,0,0.1673,0.1711,0.1771,0.1852,0.1876,0.1925,0.2037,0.2093,0.2213,0.2274,0.237,0.2412,0.2487,0.2459,0.2536,0.2518,0.2516,0.2517,0.2519,0.2352,0.23,0.24,0.2503,0.2501,0.25,0.2499,0.2498,0,0.1628,0.1711,0.1762,0.179,0.1886,0.1949,0.2013,0.2131,0.2198,0.2332,0.2398,0.2495,0.2551,0.2589,0.2598,0.2585,0.2661,0.2639,0.2495,0.2483,0.258,0.2569,0.2689,0.2689,0.2688,0.2688,0.2688,0,0.1605,0.1648,0.1752,0.1777,0.1852,0.1934,0.2033,0.2117,0.2247,0.2322,0.2435,0.2495,0.2593,0.2644,0.2637,0.2593,0.27,0.2506,0.2489,0.2608,0.26,0.2587,0.2574,0.269,0.2689,0.2689,0.2689,0,0.1541,0.1611,0.1673,0.1789,0.1833,0.189,0.2039,0.2099,0.2238,0.2342,0.2391,0.253,0.259,0.265,0.2701,0.2623,0.2604,0.2559,0.2675,0.2663,0.2382,0.2373,0.2399,0.2393,0.2389,0.2386,0.2383,0,0.1507,0.1536,0.1667,0.1709,0.1772,0.1872,0.1936,0.2085,0.2149,0.2333,0.2364,0.2488,0.2553,0.2503,0.2574,0.2558,0.2525,0.2492,0.2436,0.2375,0.2357,0.2355,0.2352,0.2376,0.2375,0.2373,0.2372,0,0.1445,0.1512,0.1564,0.1651,0.1728,0.1794,0.1902,0.1936,0.2093,0.2235,0.2283,0.2314,0.2373,0.2402,0.2409,0.2392,0.2502,0.2446,0.2454,0.2402,0.2347,0.2333,0.2336,0.2357,0.236,0.2361,0.2362,0,0.141,0.1429,0.1511,0.1572,0.1657,0.1688,0.1757,0.1824,0.1904,0.21,0.2107,0.2228,0.235,0.2316,0.2323,0.2298,0.2257,0.217,0.2192,0.2209,0.213,0.2032,0.1935,0,0,0,0,0,0.1364,0.1372,0.1421,0.1476,0.1551,0.16,0.1716,0.1786,0.1935,0.1917,0.2009,0.205,0.207,0.2136,0.2071,0.2233,0.2264,0.2146,0.2175,0.2275,0.2292,0.2215,0,0,0,0,0,0,0.1332,0.1378,0.1385,0.138,0.1395,0.1462,0.1528,0.1628,0.163,0.1787,0.1812,0.1925,0.1979,0.2085,0.2032,0.2049,0.2023,0.2225,0.2219,0.2265,0.228,0.2294,0.2221,0,0,0,0,0]},{"header":{"parameterUnit":"m.s-1","parameterCategory":2,"la1":30.2991,"la2":30.254,"lo1":-89.0895,"lo2":-89.0444,"dy":0.0017,"dx":0.0017,"nx":28,"ny":28,"refTime":"2024-09-28T09:00:00:Z","depth":"4","parameterNumber":3,"parameterNumberName":"V-component_of_CURRENTS"},"data":[0,0,0,0,0,0,0,0,0,0,0,0,0,0,0,0,0,0,0,0,0,0,0,0,0,0,0,0,0,0,0,0,0,0,0,0,0,0,0,0,0,0,0,0,0,0,0,0,0,0,0,0,0,0,0,0,0,0,0.0168,0.0168,0,0.0128,0.0127,0.0127,0.0105,0.0105,0.0106,0.0106,0.0037,0.0036,0.0034,0,0,0,0,0,0,0,0,0,0,0,0,0,0.0178,0.0178,0.0168,0.0168,0.0167,0.0128,0.0127,0.0127,0.0105,0.0105,0.0106,0.0106,0.0038,0.0036,0.0034,0,0,0,0,0,0,0,0,0,0,0,0,0,0.0158,0.0178,0.0168,0.0153,0.0151,0.0128,0.0127,0.0127,0.0105,0.0105,0.0106,0.0106,0.0039,0.0036,0.0033,0.0013,0,0,0.0025,0.0023,0,0,0,0,0,0,0,0,0.0159,0.0158,0.0156,0.0154,0.0152,0.0123,0.0106,0.0088,0.0105,0.0121,0.0106,0.0106,0.0064,0.0059,0.005,0.001,0.0007,0.0024,0.0023,0.0021,0.0021,0,0,0,0,0,0,0,0.0161,0.0159,0.0151,0.0155,0.0153,0.0132,0.0129,0.0102,0.0091,0.012,0.0119,0.0116,0.0063,0.0053,0.0048,0.0006,0.0024,0.0022,0.002,0.0019,-0.0056,-0.0057,0,0,0,0,0,0,0.0171,0.0161,0.0152,0.015,0.0158,0.0132,0.0129,0.0131,0.0092,0.0087,0.0116,0.0116,0.0058,0.0052,0.0046,0.0034,0.0021,0.0019,0.0017,-0.0056,-0.0056,-0.0057,0,0,0,0,0,0,0.0171,0.0171,0.0154,0.0155,0.0151,0.0132,0.0134,0.013,0.0126,0.009,0.0084,0.0117,0.0057,0.005,0.0027,0.003,0.0018,0.0015,-0.0056,-0.0056,-0.0057,0.0001,0,0,0,0,0,0,0.0172,0.0171,0.0177,0.0156,0.0152,0.0148,0.0134,0.013,0.0125,0.0123,0.0088,0.0082,0.0057,0.0031,0.0024,0.0026,0.0013,-0.0055,-0.0056,-0.0056,-0.0001,0.0002,0.0005,0,0,0,0,0,0.0172,0.0182,0.0178,0.0177,0.016,0.0148,0.0144,0.0129,0.0125,0.0125,0.0101,0.0083,0.0022,0.0029,0.0021,0.0022,-0.0055,-0.0056,-0.0056,-0.0002,0.0002,0.0005,0,0,0,0,0,0,0.0188,0.0181,0.0175,0.0182,0.0169,0.0146,0.0146,0.0135,0.0116,0.0116,0.0081,0.0073,0.0052,0.0027,0.0035,-0.0004,-0.002,-0.0023,0.0024,0.0027,0.003,0.0051,0.001,0,0,0,0,0,0.0195,0.0202,0.0186,0.0192,0.0189,0.0169,0.0163,0.0153,0.0134,0.0126,0.0101,0.007,0.0041,0.0028,-0.0002,-0.002,-0.0047,-0.0027,-0.0024,-0.0022,-0.0012,-0.0052,-0.0052,-0.0059,-0.0059,-0.0059,0,0,0.0201,0.0199,0.0202,0.0196,0.0186,0.0187,0.0165,0.0163,0.0163,0.0121,0.0113,0.008,0.0037,0.0017,0.0005,-0.0001,-0.0035,-0.0022,-0.0019,-0.0011,-0.0053,-0.0052,-0.0051,-0.0059,-0.0059,-0.0059,0,0,0.0221,0.0218,0.0231,0.0226,0.0218,0.0205,0.0208,0.0189,0.0181,0.0167,0.0134,0.0107,0.0066,0.0037,0.0016,0.0015,-0.0019,0.0002,0.0036,-0.0003,-0.0002,-0.0002,-0.0033,-0.0036,0.0005,0.0006,0.0006,0,0.0228,0.0244,0.0231,0.0241,0.0243,0.0218,0.023,0.0216,0.0191,0.0188,0.0173,0.0112,0.0076,0.0048,0.0047,0.0023,-0.0002,0.0031,0.0003,0.0003,0.0002,-0.0031,-0.0035,0.0008,0.0008,0.0008,0.0007,0,0.0256,0.0269,0.0276,0.0283,0.0281,0.0287,0.027,0.0267,0.0253,0.0236,0.021,0.0157,0.0125,0.0102,0.0075,0.0051,0.0035,0.0012,0.0,0.0007,-0.0029,-0.0034,0.0012,0.0011,0.001,0.001,0,0,0.0271,0.0293,0.0296,0.0312,0.0306,0.031,0.0312,0.0308,0.0319,0.028,0.028,0.022,0.0196,0.017,0.0126,0.0089,0.0058,0.0056,0.0053,0.0036,-0.0022,-0.0028,-0.0035,0.0033,0.0032,0.0031,-0.0043,0,0.0295,0.0333,0.0332,0.0364,0.0381,0.0367,0.0376,0.0369,0.0352,0.0345,0.0287,0.0268,0.022,0.0207,0.0162,0.0084,0.0047,0.0081,-0.0035,-0.0038,-0.0036,-0.004,0.0029,-0.0047,-0.0049,-0.0049,-0.005,0,0.0321,0.0345,0.0386,0.0419,0.0426,0.0443,0.0461,0.0465,0.0444,0.0432,0.0399,0.0352,0.0294,0.0251,0.013,0.0155,0.0078,0.0013,0.0008,-0.0019,-0.0054,-0.0058,-0.006,-0.0059,-0.0058,-0.0058,-0.0057,0,0.0345,0.0382,0.0421,0.043,0.0459,0.0483,0.0501,0.0498,0.0517,0.0492,0.0496,0.0415,0.0382,0.0273,0.0136,0.0136,-0.0004,-0.0024,-0.0103,-0.0105,-0.01,-0.01,-0.0106,-0.0106,-0.0106,-0.0106,-0.0106,0,0.0367,0.0398,0.0444,0.0467,0.0526,0.0529,0.0584,0.0589,0.0598,0.0625,0.055,0.054,0.0387,0.0285,0.0157,0.0011,0.001,-0.0094,-0.0124,-0.0076,-0.0072,-0.0104,-0.0103,-0.0109,-0.0108,-0.0108,-0.0107,0,0.0378,0.0406,0.0461,0.0516,0.0542,0.0586,0.0657,0.0691,0.0694,0.0723,0.072,0.0636,0.051,0.0342,0.0158,0.005,-0.0098,-0.0152,-0.0082,-0.0108,-0.0175,-0.017,-0.0234,-0.0234,-0.0235,-0.0236,-0.0236,0,0.0386,0.0418,0.0505,0.0552,0.0584,0.0655,0.0707,0.0741,0.078,0.0779,0.0793,0.069,0.061,0.0352,0.0169,-0.0075,-0.0114,-0.0193,-0.0187,-0.0165,-0.0188,-0.0182,-0.0177,-0.0237,-0.0238,-0.0238,-0.0238,0,0.0403,0.044,0.0487,0.0591,0.0663,0.0741,0.0819,0.0856,0.0888,0.0889,0.0857,0.0723,0.0579,0.037,0.0174,-0.0004,-0.0144,-0.0202,-0.0201,-0.0196,-0.0171,-0.0192,-0.0185,-0.024,-0.024,-0.024,-0.024,0,0.0419,0.0458,0.0534,0.0623,0.0716,0.0803,0.0843,0.0891,0.093,0.0928,0.0914,0.0755,0.0665,0.0406,0.0224,0.0049,0.0008,-0.0054,-0.0062,-0.0062,0.0003,0.006,0.004,0,0,0,0,0,0.043,0.048,0.0562,0.0663,0.0756,0.0817,0.0906,0.0935,0.0967,0.0957,0.0941,0.0808,0.0552,0.0441,0.0268,0.0199,-0.0035,-0.0012,-0.0113,-0.0254,-0.0251,-0.0207,0,0,0,0,0,0,0.044,0.0512,0.0557,0.0681,0.0756,0.0862,0.0923,0.0947,0.0944,0.0946,0.0818,0.0758,0.0512,0.0654,0.0264,0.021,0.012,-0.0128,-0.0132,-0.0256,-0.0253,-0.0251,-0.0204,0,0,0,0,0]}]]